Location: *
(32.3758°S, 63.1185°E)
Time: 18:54:27
(UTC+00:00)

DMSP B5D1-3 - Pass Details

Date: 02 June 2023
Orbit: 764 x 779 km, 98.5° (Epoch: 23 September)

Event Time Altitude Azimuth Distance (km) Brightness Sun altitude
Rises 13:47:11 0° 18° (NNE) 3,244 7.8 -12.0°
Reaches altitude 10° 13:49:28 10° 19° (NNE) 2,326 7.0 -12.5°
Maximum altitude 13:54:36 78° 104° (ESE) 807 4.5 -13.5°
Drops below altitude 10° 13:59:49 10° 189° (S) 2,361 7.0 -14.5°
Sets 14:02:10 0° 190° (S) 3,297 7.7 -15.0°
